Weather History for Longville, MN

Change the Weather History Date:

Tuesday, March 19, 2013

  Actual Average (KPWC) Record (KPWC)
Temperature  
Mean Temperature 9 °F -  
Max Temperature 17 °F 38 °F 71 °F (2012)
Min Temperature 1 °F 16 °F 3 °F (2013)
Degree Days  
Heating Degree Days 56    
Moisture  
Dew Point -2 °F    
Average Humidity 64    
Maximum Humidity 85    
Minimum Humidity 38    
Precipitation  
Precipitation 0.00 in - - ()
Sea Level Pressure  
Sea Level Pressure 29.96 in    
Wind  
Wind Speed 13 mph (WNW)    
Max Wind Speed 18 mph    
Max Gust Speed 32 mph    
Visibility 10 miles    
Events Snow    
Averages and records for this station are not official NWS values.
T = Trace of Precipitation, MM = Missing Value Source: NWS Daily Summary

Daily Weather History Graph

Daily Weather History Graph

Search for Another Location

Airport:

Trip Planner

Search our weather history database for the weather conditions in past years. The results will help you decide how hot, cold, wet, or windy it might be!

Date:

Astronomy

Mar. 19, 2013 Rise Set
Actual Time 7:21 AM CDT 7:28 PM CDT
Civil Twilight 6:50 AM CDT 7:58 PM CDT
Nautical Twilight 6:15 AM CDT 8:34 PM CDT
Astronomical Twilight 5:38 AM CDT 9:11 PM CDT
Moon 11:51 AM CDT (3/19) 2:37 AM CDT (3/19)
Length of Visible Light 13h 07m
Length of Day
12h 07m
Waxing Crescent, 50% of the Moon is Illuminated
Mar 19
Waxing Crescent
Mar 19
First Quarter
Mar 27
Full
Apr 2
Last Quarter
Apr 10
New

Hourly Weather History & Observations

Time (CDT) Temp. Windchill Dew Point Humidity Pressure Visibility Wind Dir Wind Speed Gust Speed Precip Events Conditions
12:16 AM 6.8 °F -9.3 °F 1.4 °F 79% 29.75 in 10.0 mi WNW 12.7 mph 20.7 mph N/A   Clear
12:36 AM 6.8 °F -10.0 °F 1.4 °F 79% 29.75 in 10.0 mi WNW 13.8 mph 20.7 mph N/A Snow Light Snow
12:56 AM 6.8 °F -11.8 °F 1.4 °F 79% 29.76 in 10.0 mi WNW 17.3 mph 20.7 mph N/A Snow Light Snow
1:16 AM 6.8 °F -10.7 °F 3.2 °F 85% 29.76 in 10.0 mi WNW 15.0 mph 23.0 mph N/A Snow Light Snow
1:36 AM 6.8 °F -11.3 °F 3.2 °F 85% 29.76 in 10.0 mi WNW 16.1 mph 25.3 mph N/A Snow Light Snow
1:56 AM 6.8 °F -8.6 °F 1.4 °F 79% 29.77 in 10.0 mi WNW 11.5 mph 21.9 mph N/A Snow Light Snow
2:16 AM 6.8 °F -9.3 °F 1.4 °F 79% 29.78 in 10.0 mi WNW 12.7 mph 21.9 mph N/A Snow Light Snow
2:36 AM 6.8 °F -11.3 °F 1.4 °F 79% 29.79 in 10.0 mi WNW 16.1 mph 21.9 mph N/A   Scattered Clouds
2:56 AM 6.8 °F -10.0 °F 1.4 °F 79% 29.79 in 10.0 mi WNW 13.8 mph 18.4 mph N/A   Scattered Clouds
3:16 AM 5.0 °F -10.8 °F -0.4 °F 78% 29.79 in 10.0 mi WNW 11.5 mph 16.1 mph N/A   Clear
3:36 AM 5.0 °F -12.3 °F -0.4 °F 78% 29.80 in 10.0 mi WNW 13.8 mph 21.9 mph N/A   Clear
3:56 AM 3.2 °F -13.9 °F -0.4 °F 85% 29.81 in 10.0 mi WNW 12.7 mph 18.4 mph N/A   Clear
4:16 AM 3.2 °F -12.2 °F -0.4 °F 85% 29.81 in 10.0 mi WNW 10.4 mph 17.3 mph N/A   Clear
4:36 AM 3.2 °F -13.9 °F -0.4 °F 85% 29.81 in 10.0 mi WNW 12.7 mph 19.6 mph N/A   Clear
4:56 AM 3.2 °F -12.2 °F -0.4 °F 85% 29.83 in 10.0 mi WNW 10.4 mph 19.6 mph N/A   Clear
5:16 AM 3.2 °F -11.3 °F -2.2 °F 78% 29.83 in 10.0 mi WNW 9.2 mph 19.6 mph N/A   Clear
5:36 AM 3.2 °F -13.1 °F -2.2 °F 78% 29.84 in 10.0 mi WNW 11.5 mph 19.6 mph N/A   Clear
5:56 AM 1.4 °F -12.5 °F -2.2 °F 85% 29.85 in 10.0 mi WNW 8.1 mph 23.0 mph N/A   Clear
6:16 AM 1.4 °F -17.6 °F -2.2 °F 85% 29.86 in 10.0 mi WNW 15.0 mph 21.9 mph N/A   Clear
6:36 AM 1.4 °F -14.5 °F -2.2 °F 85% 29.87 in 10.0 mi WNW 10.4 mph 19.6 mph N/A   Clear
6:56 AM 1.4 °F -12.5 °F -2.2 °F 85% 29.88 in 10.0 mi WNW 8.1 mph 17.3 mph N/A   Clear
7:16 AM 1.4 °F -16.1 °F -2.2 °F 85% 29.89 in 10.0 mi WNW 12.7 mph 18.4 mph N/A   Clear
7:36 AM 1.4 °F -14.5 °F -2.2 °F 85% 29.90 in 10.0 mi WNW 10.4 mph 19.6 mph N/A   Clear
7:56 AM 1.4 °F -11.3 °F -4.0 °F 78% 29.92 in 10.0 mi WNW 6.9 mph 18.4 mph N/A   Clear
8:16 AM 1.4 °F -16.1 °F -4.0 °F 78% 29.92 in 10.0 mi WNW 12.7 mph 23.0 mph N/A   Clear
8:36 AM 1.4 °F -15.3 °F -4.0 °F 78% 29.93 in 10.0 mi WNW 11.5 mph 19.6 mph N/A   Clear
8:56 AM 3.2 °F -10.3 °F -4.0 °F 72% 29.94 in 10.0 mi NW 8.1 mph 18.4 mph N/A   Clear
9:16 AM 3.2 °F -10.3 °F -2.2 °F 78% 29.94 in 10.0 mi WNW 8.1 mph 16.1 mph N/A   Clear
9:36 AM 5.0 °F -6.9 °F -2.2 °F 72% 29.95 in 10.0 mi NW 6.9 mph 19.6 mph N/A   Clear
9:56 AM 6.8 °F -5.9 °F -2.2 °F 67% 29.96 in 10.0 mi WNW 8.1 mph 18.4 mph N/A   Clear
10:16 AM 6.8 °F -9.3 °F -2.2 °F 67% 29.96 in 10.0 mi NW 12.7 mph 17.3 mph N/A   Clear
10:36 AM 8.6 °F -5.5 °F -2.2 °F 62% 29.97 in 10.0 mi WNW 10.4 mph 18.4 mph N/A   Clear
10:56 AM 10.4 °F -3.3 °F -2.2 °F 57% 29.98 in 10.0 mi WNW 10.4 mph 19.6 mph N/A   Clear
11:16 AM 10.4 °F -6.0 °F -2.2 °F 57% 29.98 in 10.0 mi WNW 15.0 mph 21.9 mph N/A   Clear
11:36 AM 10.4 °F -6.6 °F -2.2 °F 57% 29.99 in 10.0 mi NW 16.1 mph 23.0 mph N/A   Clear
11:56 AM 12.2 °F -3.1 °F -0.4 °F 57% 29.99 in 10.0 mi WNW 13.8 mph 26.5 mph N/A   Clear
12:16 PM 12.2 °F -3.1 °F -0.4 °F 57% 29.98 in 10.0 mi WNW 13.8 mph 23.0 mph N/A   Clear
12:36 PM 14.0 °F -1.4 °F -0.4 °F 53% 29.99 in 10.0 mi WNW 15.0 mph 20.7 mph N/A   Clear
12:56 PM 15.8 °F 2.1 °F -0.4 °F 49% 29.99 in 10.0 mi WNW 12.7 mph 23.0 mph N/A   Clear
1:16 PM 15.8 °F -0.6 °F -0.4 °F 49% 30.00 in 10.0 mi WNW 18.4 mph 25.3 mph N/A   Clear
1:36 PM 15.8 °F 2.1 °F -0.4 °F 49% 30.00 in 10.0 mi WNW 12.7 mph 25.3 mph N/A   Clear
1:56 PM 17.6 °F 5.0 °F -0.4 °F 45% 30.01 in 10.0 mi NW 11.5 mph 21.9 mph N/A   Clear
2:16 PM 17.6 °F 2.7 °F 1.4 °F 49% 30.01 in 10.0 mi WNW 16.1 mph 23.0 mph N/A   Clear
2:36 PM 17.6 °F 2.2 °F -0.4 °F 45% 30.01 in 10.0 mi WNW 17.3 mph 26.5 mph N/A   Clear
2:56 PM 17.6 °F 3.7 °F -0.4 °F 45% 30.01 in 7.0 mi WNW 13.8 mph 32.2 mph N/A   Clear
3:16 PM 17.6 °F 6.4 °F -0.4 °F 45% 30.01 in 10.0 mi WNW 9.2 mph 21.9 mph N/A   Clear
3:36 PM 17.6 °F 3.7 °F 1.4 °F 49% 30.02 in 10.0 mi WNW 13.8 mph 27.6 mph N/A   Clear
3:56 PM 17.6 °F 1.7 °F -0.4 °F 45% 30.02 in 10.0 mi WNW 18.4 mph 24.2 mph N/A   Clear
4:16 PM 17.6 °F 7.3 °F -0.4 °F 45% 30.03 in 10.0 mi NW 8.1 mph 18.4 mph N/A   Clear
4:36 PM 17.6 °F 2.7 °F -4.0 °F 38% 30.04 in 10.0 mi WNW 16.1 mph 27.6 mph N/A   Clear
4:56 PM 15.8 °F 3.4 °F -5.8 °F 38% 30.04 in 10.0 mi NW 10.4 mph 24.2 mph N/A   Clear
5:16 PM 15.8 °F 2.1 °F -5.8 °F 38% 30.05 in 10.0 mi WNW 12.7 mph 24.2 mph N/A   Clear
5:36 PM 15.8 °F 0.9 °F -5.8 °F 38% 30.06 in 10.0 mi WNW 15.0 mph 19.6 mph N/A   Clear
5:56 PM 15.8 °F 5.1 °F -5.8 °F 38% 30.07 in 10.0 mi NW 8.1 mph 16.1 mph N/A   Clear
6:16 PM 14.0 °F 0.5 °F -5.8 °F 41% 30.08 in 10.0 mi NW 11.5 mph 18.4 mph N/A   Clear
6:36 PM 12.2 °F -1.8 °F -4.0 °F 48% 30.09 in 10.0 mi NW 11.5 mph 18.4 mph N/A   Clear
7:16 PM 10.4 °F -2.4 °F -5.8 °F 48% 30.11 in 10.0 mi WNW 9.2 mph 18.4 mph N/A   Clear
7:36 PM 8.6 °F -8.3 °F -5.8 °F 52% 30.11 in 10.0 mi WNW 15.0 mph 24.2 mph N/A   Clear
7:56 PM 8.6 °F -6.3 °F -5.8 °F 52% 30.12 in 10.0 mi WNW 11.5 mph 19.6 mph N/A   Clear
8:16 PM 6.8 °F -7.8 °F -5.8 °F 56% 30.12 in 10.0 mi WNW 10.4 mph 18.4 mph N/A   Clear
8:36 PM 6.8 °F -8.6 °F -5.8 °F 56% 30.12 in 10.0 mi WNW 11.5 mph 19.6 mph N/A   Clear
8:56 PM 6.8 °F -9.3 °F -7.6 °F 52% 30.12 in 10.0 mi WNW 12.7 mph 17.3 mph N/A   Clear
9:16 PM 6.8 °F -8.6 °F -5.8 °F 56% 30.13 in 10.0 mi West 11.5 mph 16.1 mph N/A   Clear
9:36 PM 6.8 °F -10.0 °F -7.6 °F 52% 30.13 in 10.0 mi WNW 13.8 mph 19.6 mph N/A   Clear
9:56 PM 5.0 °F -12.3 °F -5.8 °F 61% 30.13 in 10.0 mi WNW 13.8 mph 18.4 mph N/A   Clear
10:16 PM 5.0 °F -10.8 °F -5.8 °F 61% 30.12 in 10.0 mi WNW 11.5 mph 20.7 mph N/A   Clear
10:36 PM 5.0 °F -11.6 °F -5.8 °F 61% 30.12 in 10.0 mi WNW 12.7 mph 19.6 mph N/A   Clear
10:56 PM 5.0 °F -10.8 °F -5.8 °F 61% 30.12 in 10.0 mi WNW 11.5 mph 17.3 mph N/A   Clear
11:16 PM 3.2 °F -11.3 °F -5.8 °F 66% 30.12 in 10.0 mi WNW 9.2 mph - N/A   Clear
11:36 PM 3.2 °F -13.1 °F -5.8 °F 66% 30.12 in 10.0 mi WNW 11.5 mph 18.4 mph N/A   Clear
11:56 PM 3.2 °F -12.2 °F -5.8 °F 66% 30.12 in 10.0 mi WNW 10.4 mph - N/A   Clear